When you browse on this site, cookies collect data to enhance your experience and personalize the content and advertising you see.
Visit our Privacy Policy to learn more. By continuing to use the site, you agree to this use of cookies and data.
  • In Germany
  • List of Countries
  • For 7 days
  • Water Temperature
  • Satellite Maps
  • Weather Map
  • Weather Widgets
  • user-avatar
    Login

    Hourly Weather Vlotho

    Today, 19 November, Monday

    Time Temperature Precipitation Wind Pressure Humidity
    00:00 +3°C° 0 mm 4 mps 758 mmHg 89%
    01:00 +3°C° 0 mm 4 mps 757 mmHg 89%
    02:00 +3°C° 0 mm 4 mps 757 mmHg 89%
    03:00 +3°C° 0 mm 4 mps 756 mmHg 89%
    04:00 +2°C° 0 mm 5 mps 756 mmHg 89%
    05:00 +2°C° 0 mm 5 mps 755 mmHg 87%
    06:00 +2°C° 0 mm 5 mps 755 mmHg 86%
    07:00 +1°C° 0 mm 4 mps 755 mmHg 87%
    08:00 +2°C° 0 mm 5 mps 755 mmHg 84%
    09:00 +2°C° 0 mm 5 mps 754 mmHg 82%
    10:00 +2°C° 0 mm 6 mps 754 mmHg 79%
    11:00 +3°C° 0.1 mm 7 mps 754 mmHg 77%
    12:00 +3°C° 0.1 mm 7 mps 754 mmHg 74%
    13:00 +3°C° 0.1 mm 7 mps 754 mmHg 72%
    14:00 +3°C° 0.1 mm 7 mps 753 mmHg 71%
    15:00 +2°C° 0.1 mm 7 mps 753 mmHg 71%
    16:00 +2°C° 0.1 mm 7 mps 753 mmHg 71%
    17:00 +2°C° 0 mm 7 mps 753 mmHg 72%
    18:00 +2°C° 0 mm 7 mps 753 mmHg 73%
    19:00 0°C° 0 mm 7 mps 753 mmHg 74%
    20:00 0°C° 0 mm 7 mps 753 mmHg 74%
    21:00 -1°C° 0 mm 7 mps 753 mmHg 75%
    22:00 -1°C° 0 mm 7 mps 753 mmHg 75%
    23:00 -1°C° 0 mm 7 mps 752 mmHg 75%

    Tomorrow, 20 November, Tuesday

    Time Temperature Precipitation Wind Pressure Humidity
    00:00 -1°C° 0 mm 7 mps 752 mmHg 74%
    01:00 -1°C° 0 mm 7 mps 752 mmHg 74%
    02:00 -1°C° 0 mm 7 mps 751 mmHg 73%
    03:00 -1°C° 0 mm 8 mps 751 mmHg 73%
    04:00 -1°C° 0 mm 8 mps 750 mmHg 72%
    05:00 -1°C° 0 mm 8 mps 750 mmHg 73%
    06:00 -1°C° 0 mm 8 mps 750 mmHg 73%
    07:00 -2°C° 0 mm 8 mps 749 mmHg 73%
    08:00 -1°C° 0 mm 8 mps 749 mmHg 73%
    09:00 -1°C° 0 mm 8 mps 749 mmHg 72%
    10:00 -1°C° 0 mm 8 mps 749 mmHg 71%
    11:00 -1°C° 0.2 mm 8 mps 749 mmHg 71%
    12:00 -1°C° 0.2 mm 8 mps 748 mmHg 72%
    13:00 -1°C° 0.2 mm 8 mps 748 mmHg 73%
    14:00 -1°C° 0.7 mm 7 mps 748 mmHg 76%
    15:00 -1°C° 0.7 mm 7 mps 747 mmHg 80%
    16:00 -1°C° 0.7 mm 6 mps 747 mmHg 84%
    17:00 -2°C° 0.5 mm 6 mps 747 mmHg 85%
    18:00 -2°C° 0.5 mm 6 mps 747 mmHg 87%
    19:00 -2°C° 0.5 mm 6 mps 748 mmHg 88%
    20:00 -2°C° 0 mm 6 mps 748 mmHg 89%
    21:00 -1°C° 0 mm 5 mps 748 mmHg 89%
    22:00 -1°C° 0 mm 5 mps 748 mmHg 90%
    23:00 -1°C° 0 mm 5 mps 749 mmHg 90%

    Day after tomorrow, 21 November, Wednesday

    Time Temperature Precipitation Wind Pressure Humidity
    00:00 -1°C° 0 mm 5 mps 749 mmHg 91%
    01:00 -1°C° 0 mm 4 mps 749 mmHg 92%
    02:00 -1°C° 0 mm 4 mps 749 mmHg 92%
    03:00 -1°C° 0 mm 4 mps 750 mmHg 92%
    04:00 -1°C° 0 mm 4 mps 750 mmHg 92%
    05:00 -2°C° 0 mm 4 mps 750 mmHg 92%
    06:00 -2°C° 0 mm 4 mps 750 mmHg 92%
    07:00 -2°C° 0 mm 4 mps 751 mmHg 93%
    08:00 -1°C° 0 mm 4 mps 751 mmHg 92%
    09:00 -1°C° 0 mm 4 mps 752 mmHg 91%
    10:00 0°C° 0 mm 4 mps 752 mmHg 90%
    11:00 0°C° 0 mm 4 mps 753 mmHg 90%
    12:00 +1°C° 0 mm 4 mps 753 mmHg 89%
    13:00 +1°C° 0 mm 4 mps 753 mmHg 89%
    14:00 +1°C° 0 mm 4 mps 753 mmHg 89%
    15:00 +1°C° 0 mm 4 mps 753 mmHg 89%
    16:00 0°C° 0 mm 4 mps 754 mmHg 90%
    17:00 0°C° 0 mm 4 mps 754 mmHg 90%
    18:00 0°C° 0 mm 4 mps 754 mmHg 90%
    19:00 0°C° 0 mm 4 mps 755 mmHg 90%
    20:00 0°C° 0 mm 4 mps 755 mmHg 91%
    21:00 0°C° 0 mm 4 mps 755 mmHg 91%
    22:00 0°C° 0 mm 4 mps 755 mmHg 92%
    23:00 0°C° 0 mm 4 mps 755 mmHg 92%

    22 November, Thursday

    Time Temperature Precipitation Wind Pressure Humidity
    00:00 0°C° 0 mm 4 mps 755 mmHg 92%
    01:00 0°C° 0 mm 4 mps 755 mmHg 92%
    02:00 0°C° 0 mm 4 mps 755 mmHg 92%
    03:00 0°C° 0 mm 4 mps 755 mmHg 91%
    04:00 0°C° 0 mm 4 mps 755 mmHg 91%
    05:00 0°C° 0 mm 4 mps 755 mmHg 91%
    06:00 0°C° 0 mm 4 mps 755 mmHg 91%
    07:00 -1°C° 0 mm 4 mps 755 mmHg 91%
    08:00 0°C° 0 mm 4 mps 755 mmHg 90%
    09:00 0°C° 0 mm 4 mps 755 mmHg 90%
    10:00 0°C° 0 mm 4 mps 755 mmHg 89%
    11:00 0°C° 0 mm 4 mps 755 mmHg 88%
    12:00 +1°C° 0 mm 4 mps 755 mmHg 86%
    13:00 +1°C° 0 mm 4 mps 755 mmHg 85%
    14:00 +2°C° 0 mm 3 mps 755 mmHg 86%
    15:00 +2°C° 0 mm 3 mps 755 mmHg 88%
    16:00 +2°C° 0 mm 3 mps 755 mmHg 89%
    17:00 +2°C° 0 mm 3 mps 755 mmHg 90%
    18:00 +1°C° 0 mm 3 mps 755 mmHg 91%
    19:00 +1°C° 0 mm 3 mps 755 mmHg 92%
    20:00 +2°C° 0 mm 2 mps 755 mmHg 93%
    21:00 +2°C° 0 mm 2 mps 756 mmHg 93%
    22:00 +2°C° 0 mm 2 mps 756 mmHg 93%
    23:00 +2°C° 0 mm 2 mps 756 mmHg 93%

    23 November, Friday

    Time Temperature Precipitation Wind Pressure Humidity
    00:00 +2°C° 0 mm 2 mps 756 mmHg 93%
    01:00 +2°C° 0 mm 2 mps 756 mmHg 93%
    02:00 +2°C° 0 mm 2 mps 756 mmHg 94%
    03:00 +1°C° 0 mm 2 mps 756 mmHg 94%
    04:00 +1°C° 0 mm 2 mps 756 mmHg 94%
    05:00 +1°C° 0 mm 2 mps 756 mmHg 94%
    06:00 +1°C° 0 mm 2 mps 756 mmHg 94%
    07:00 +1°C° 0 mm 2 mps 756 mmHg 94%
    08:00 +2°C° 0 mm 2 mps 756 mmHg 92%
    09:00 +2°C° 0 mm 2 mps 756 mmHg 91%
    10:00 +3°C° 0 mm 2 mps 756 mmHg 89%
    11:00 +4°C° 0 mm 2 mps 756 mmHg 86%
    12:00 +6°C° 0 mm 1 mps 756 mmHg 82%
    13:00 +7°C° 0 mm 1 mps 756 mmHg 79%
    14:00 +6°C° 0 mm 1 mps 756 mmHg 83%
    15:00 +6°C° 0 mm 1 mps 755 mmHg 86%
    16:00 +5°C° 0 mm 1 mps 755 mmHg 89%
    17:00 +5°C° 0 mm 1 mps 755 mmHg 90%
    18:00 +4°C° 0 mm 1 mps 755 mmHg 91%
    19:00 +4°C° 0 mm 1 mps 755 mmHg 91%
    20:00 +4°C° 0 mm 1 mps 755 mmHg 91%
    21:00 +4°C° 0 mm 1 mps 755 mmHg 91%
    22:00 +3°C° 0 mm 1 mps 755 mmHg 90%
    23:00 +3°C° 0 mm 1 mps 754 mmHg 90%

    24 November, Saturday

    Time Temperature Precipitation Wind Pressure Humidity
    00:00 +3°C° 0 mm 1 mps 754 mmHg 90%
    01:00 +4°C° 0 mm 1 mps 754 mmHg 89%
    02:00 +4°C° 0 mm 1 mps 753 mmHg 89%
    03:00 +4°C° 0 mm 1 mps 753 mmHg 89%
    04:00 +4°C° 0 mm 1 mps 753 mmHg 89%
    05:00 +4°C° 0 mm 1 mps 753 mmHg 89%
    06:00 +4°C° 0 mm 1 mps 753 mmHg 90%
    07:00 +4°C° 0 mm 1 mps 752 mmHg 90%
    08:00 +4°C° 0.2 mm 1 mps 752 mmHg 90%
    09:00 +5°C° 0.2 mm 1 mps 753 mmHg 90%
    10:00 +5°C° 0.2 mm 1 mps 753 mmHg 89%
    11:00 +5°C° 0.3 mm 1 mps 753 mmHg 89%
    12:00 +6°C° 0.3 mm 1 mps 753 mmHg 89%
    13:00 +5°C° 0.3 mm 0 mps 752 mmHg 88%
    14:00 +5°C° 0 mm 0 mps 753 mmHg 90%
    15:00 +4°C° 0 mm 0 mps 753 mmHg 92%
    16:00 +4°C° 0 mm 0 mps 753 mmHg 93%
    17:00 +4°C° 0 mm 0 mps 753 mmHg 93%
    18:00 +3°C° 0 mm 0 mps 753 mmHg 94%
    19:00 +4°C° 0 mm 1 mps 753 mmHg 94%
    20:00 +4°C° 0 mm 1 mps 753 mmHg 94%
    21:00 +3°C° 0 mm 1 mps 753 mmHg 94%
    22:00 +3°C° 0 mm 1 mps 753 mmHg 94%
    23:00 +3°C° 0 mm 1 mps 753 mmHg 94%
    Show more